Preview of NWS' New Version of Forecast
This preview is not operational and should not be used for support decisions.

Regional Weather Roundup (RWR)

Issued by National Weather Service (NWS)

                            
000
ASUS45 KBOI 240710
RWRID 

IDAHO REGIONAL WEATHER ROUNDUP
NATIONAL WEATHER SERVICE BOISE ID
100 AM MDT MON JUN 24 2019

NOTE: "FAIR" INDICATES FEW OR NO CLOUDS BELOW 12000 FEET
WITH NO SIGNIFICANT WEATHER AND/OR OBSTRUCTIONS TO VISIBILITY

IDZ012-014-240800-
SOUTHWEST IDAHO

  
CITY           SKY/WX    TMP DP  RH WIND       PRES   REMARKS
BOISE          CLEAR     62  38  40 W5        29.97S                  
CALDWELL       CLEAR     59  43  55 W6        29.98S                  
MOUNTAIN HOME  CLEAR     57  37  47 NW7       29.97S                  
$$

IDZ016-017-240800-
SOUTHCENTRAL IDAHO

  
CITY           SKY/WX    TMP DP  RH WIND       PRES   REMARKS
BURLEY         CLEAR     55  36  48 SW8       29.99R                  
JEROME         CLEAR     56  38  50 S5        29.99S                  
TWIN FALLS     CLEAR     55  34  45 SW12      30.01R                  
$$

IDZ019>023-240800-
SOUTHEAST IDAHO

  
CITY           SKY/WX    TMP DP  RH WIND       PRES   REMARKS
IDAHO FALLS    CLEAR     56  35  45 SW14      29.95R                  
POCATELLO      CLEAR     58  30  34 SW12      29.98R                  
REXBURG        CLEAR     57  35  43 S12       29.93R                  
$$

IDZ006-010-011-018-031-032-240800-
CENTRAL IDAHO MOUNTAINS

  
CITY           SKY/WX    TMP DP  RH WIND       PRES   REMARKS
MCCALL         PTCLDY    46  37  71 CALM      30.02F                  
HAILEY         CLEAR     48  32  53 NW7       30.03S                  
STANLEY          N/A     39  28  64 CALM      30.08S                  
SALMON         CLOUDY    57  41  55 E12       29.98R                  
CHALLIS        CLEAR     56  33  42 NE5       29.99R                  
$$

IDZ002-004-006-007-026-240800-
NORTHERN IDAHO

  
CITY           SKY/WX    TMP DP  RH WIND       PRES   REMARKS
LEWISTON       PTCLDY    63  42  46 SW7       29.94S                  
LOWELL           N/A     56  52  86 CALM      29.98F                  
COEUR D'ALENE  CLOUDY    55  52  89 NE3       29.90F                  
MULLAN PASS    CLOUDY    44  38  79 MISG      30.01S                  
$$